Location: Boussy-Saint-Antoine
(48.6830°N, 2.5330°E)
Time: 03:41:28
(UTC+02:00)

KKS-1 - Pass Details

Date: 22 July 2019
Orbit: 637 x 650 km, 98.3° (Epoch: 23 August)

Event Time Altitude Azimuth Distance (km) Brightness Sun altitude
Rises 22:58:39 0° 357° (N) 2,952 ? -10.6°
Reaches altitude 10° 23:02:17 10° 326° (NW) 2,037 ? -11.0°
Maximum altitude 23:03:49 12° 305° (NW) 1,924 ? -11.1°
Drops below altitude 10° 23:05:21 10° 285° (WNW) 2,033 ? -11.3°
Sets 23:08:58 0° 253° (WSW) 2,938 ? -11.7°
